Weather History for KEWK - August, 2013

Change the Weather History Date:

Wednesday, August 21, 2013

  Actual Average Record
Temperature  
Mean Temperature 78 °F -  
Max Temperature 89 °F 87 °F 104 °F (2003)
Min Temperature 66 °F 65 °F 55 °F (2004)
Cooling Degree Days 12    
Growing Degree Days 28 (Base 50)    
Moisture  
Dew Point 63 °F    
Average Humidity 65    
Maximum Humidity 88    
Minimum Humidity 40    
Precipitation  
Precipitation 0.00 in - - ()
Sea Level Pressure  
Sea Level Pressure 30.06 in    
Wind  
Wind Speed 10 mph (South)    
Max Wind Speed 17 mph    
Max Gust Speed 21 mph    
Visibility 10 miles    
Events      
Averages and records for this station are not official NWS values.
T = Trace of Precipitation, MM = Missing Value Source: NWS Daily Summary

Daily Weather History Graph

Daily Weather History Graph

Search for Another Location

Airport or City:

Trip Planner

Search our weather history database for the weather conditions in past years. The results will help you decide how hot, cold, wet, or windy it might be!

Date:

Astronomy

Aug. 21, 2013 Rise Set
Actual Time 6:49 AM CDT 8:14 PM CDT
Civil Twilight 6:21 AM CDT 8:41 PM CDT
Nautical Twilight 5:48 AM CDT 9:14 PM CDT
Astronomical Twilight 5:13 AM CDT 9:49 PM CDT
Moon 8:25 PM CDT (8/21) 7:29 AM CDT (8/21)
Length of Visible Light 14h 19m
Length of Day
13h 24m
Waxing Gibbous, 99% of the Moon is Illuminated
Aug 21
Waxing Gibbous
Aug 28
Last Quarter
Sep 5
New
Sep 12
First Quarter
Sep 19
Full

Hourly Weather History & Observations

Time (CDT) Temp. Heat Index Dew Point Humidity Pressure Visibility Wind Dir Wind Speed Gust Speed Precip Events Conditions
12:15 AM 69.8 °F - 64.4 °F 83% 30.06 in 10.0 mi SSE 9.2 mph - N/A   Clear
12:35 AM 69.8 °F - 64.4 °F 83% 30.05 in 10.0 mi SSE 9.2 mph - N/A   Clear
12:55 AM 69.8 °F - 64.4 °F 83% 30.05 in 10.0 mi SSE 9.2 mph - N/A   Clear
1:15 AM 69.8 °F - 64.4 °F 83% 30.05 in 10.0 mi SSE 10.4 mph - N/A   Clear
1:35 AM 69.8 °F - 64.4 °F 83% 30.05 in 10.0 mi SSE 9.2 mph - N/A   Clear
1:55 AM 69.8 °F - 64.4 °F 83% 30.05 in 10.0 mi SSE 8.1 mph - N/A   Clear
2:15 AM 69.8 °F - 64.4 °F 83% 30.06 in 10.0 mi SSE 9.2 mph - N/A   Clear
2:35 AM 69.8 °F - 64.4 °F 83% 30.05 in 10.0 mi South 9.2 mph - N/A   Clear
2:55 AM 69.8 °F - 64.4 °F 83% 30.05 in 10.0 mi SSE 8.1 mph - N/A   Clear
3:15 AM 68.0 °F - 62.6 °F 83% 30.05 in 10.0 mi SSE 6.9 mph - N/A   Clear
3:35 AM 68.0 °F - 62.6 °F 83% 30.05 in 10.0 mi SSE 8.1 mph - N/A   Clear
3:55 AM 68.0 °F - 62.6 °F 83% 30.05 in 10.0 mi SSE 6.9 mph - N/A   Clear
4:15 AM 66.2 °F - 62.6 °F 88% 30.05 in 10.0 mi SSE 6.9 mph - N/A   Clear
4:35 AM 66.2 °F - 62.6 °F 88% 30.05 in 10.0 mi SSE 9.2 mph - N/A   Clear
4:55 AM 66.2 °F - 62.6 °F 88% 30.05 in 10.0 mi SSE 8.1 mph - N/A   Clear
5:15 AM 66.2 °F - 62.6 °F 88% 30.05 in 10.0 mi SSE 8.1 mph - N/A   Clear
5:35 AM 66.2 °F - 62.6 °F 88% 30.05 in 10.0 mi SSE 6.9 mph - N/A   Clear
5:55 AM 66.2 °F - 62.6 °F 88% 30.05 in 10.0 mi SSE 8.1 mph - N/A   Clear
6:15 AM 66.2 °F - 62.6 °F 88% 30.06 in 10.0 mi SSE 8.1 mph - N/A   Clear
6:35 AM 66.2 °F - 62.6 °F 88% 30.06 in 10.0 mi SSE 9.2 mph - N/A   Clear
6:55 AM 66.2 °F - 60.8 °F 83% 30.07 in 10.0 mi SSE 8.1 mph - N/A   Clear
7:15 AM 66.2 °F - 62.6 °F 88% 30.07 in 10.0 mi SSE 8.1 mph - N/A   Clear
7:35 AM 66.2 °F - 62.6 °F 88% 30.07 in 10.0 mi SSE 6.9 mph - N/A   Clear
7:55 AM 66.2 °F - 62.6 °F 88% 30.08 in 10.0 mi SSE 5.8 mph - N/A   Clear
8:15 AM 68.0 °F - 62.6 °F 83% 30.08 in 10.0 mi SSE 8.1 mph - N/A   Clear
8:35 AM 69.8 °F - 62.6 °F 78% 30.09 in 10.0 mi SSE 8.1 mph - N/A   Clear
8:55 AM 71.6 °F - 62.6 °F 73% 30.09 in 10.0 mi South 8.1 mph - N/A   Clear
9:15 AM 73.4 °F - 64.4 °F 73% 30.09 in 10.0 mi South 9.2 mph - N/A   Clear
9:35 AM 75.2 °F - 64.4 °F 69% 30.08 in 10.0 mi South 10.4 mph - N/A   Clear
9:55 AM 77.0 °F - 62.6 °F 61% 30.08 in 10.0 mi South 12.7 mph - N/A   Clear
10:15 AM 78.8 °F - 62.6 °F 57% 30.08 in 7.0 mi SSW 13.8 mph - N/A   Clear
10:35 AM 78.8 °F - 62.6 °F 57% 30.08 in 10.0 mi SSW 13.8 mph 18.4 mph N/A   Clear
10:55 AM 80.6 °F 81.8 °F 62.6 °F 54% 30.08 in 5.0 mi SSW 15.0 mph 18.4 mph N/A   Clear
11:15 AM 82.4 °F 83.4 °F 62.6 °F 51% 30.09 in 5.0 mi SSW 12.7 mph - N/A   Clear
11:35 AM 82.4 °F 83.9 °F 64.4 °F 54% 30.08 in 10.0 mi SSW 12.7 mph - N/A   Clear
11:55 AM 84.2 °F 85.6 °F 64.4 °F 51% 30.08 in 10.0 mi SW 16.1 mph 19.6 mph N/A   Clear
12:15 PM 84.2 °F 85.6 °F 64.4 °F 51% 30.08 in 6.0 mi SSW 17.3 mph - N/A   Clear
12:35 PM 86.0 °F 87.3 °F 64.4 °F 48% 30.08 in 8.0 mi SW 13.8 mph - N/A   Clear
12:55 PM 87.8 °F 88.5 °F 62.6 °F 43% 30.08 in 9.0 mi SW 15.0 mph - N/A   Clear
1:15 PM 87.8 °F 89.4 °F 64.4 °F 46% 30.07 in 10.0 mi SW 16.1 mph - N/A   Clear
1:35 PM 87.8 °F 89.4 °F 64.4 °F 46% 30.07 in 10.0 mi SW 16.1 mph 19.6 mph N/A   Clear
1:55 PM 87.8 °F 89.4 °F 64.4 °F 46% 30.07 in 8.0 mi SSW 16.1 mph - N/A   Clear
2:15 PM 89.6 °F 91.1 °F 64.4 °F 43% 30.07 in 10.0 mi SSW 15.0 mph - N/A   Clear
2:35 PM 89.6 °F 91.1 °F 64.4 °F 43% 30.08 in 10.0 mi SSW 12.7 mph 19.6 mph N/A   Clear
2:55 PM 89.6 °F 91.1 °F 64.4 °F 43% 30.07 in 10.0 mi SSW 13.8 mph - N/A   Clear
3:15 PM 89.6 °F 91.1 °F 64.4 °F 43% 30.06 in 10.0 mi SSW 12.7 mph 19.6 mph N/A   Clear
3:35 PM 89.6 °F 91.1 °F 64.4 °F 43% 30.06 in 10.0 mi South 15.0 mph 19.6 mph N/A   Clear
3:55 PM 89.6 °F 91.1 °F 64.4 °F 43% 30.06 in 10.0 mi South 15.0 mph - N/A   Clear
4:15 PM 89.6 °F 90.1 °F 62.6 °F 40% 30.05 in 10.0 mi South 17.3 mph - N/A   Clear
4:35 PM 89.6 °F 90.1 °F 62.6 °F 40% 30.05 in 10.0 mi South 15.0 mph 20.7 mph N/A   Clear
4:55 PM 89.6 °F 90.1 °F 62.6 °F 40% 30.04 in 10.0 mi South 15.0 mph 20.7 mph N/A   Clear
5:15 PM 89.6 °F 90.1 °F 62.6 °F 40% 30.04 in 10.0 mi South 15.0 mph - N/A   Clear
5:35 PM 89.6 °F 90.1 °F 62.6 °F 40% 30.04 in 10.0 mi SSW 12.7 mph 18.4 mph N/A   Clear
5:55 PM 89.6 °F 90.1 °F 62.6 °F 40% 30.04 in 10.0 mi South 11.5 mph - N/A   Clear
6:15 PM 87.8 °F 88.5 °F 62.6 °F 43% 30.04 in 10.0 mi South 11.5 mph - N/A   Clear
6:35 PM 87.8 °F 88.5 °F 62.6 °F 43% 30.03 in 10.0 mi South 9.2 mph - N/A   Clear
6:55 PM 86.0 °F 86.6 °F 62.6 °F 45% 30.03 in 10.0 mi South 11.5 mph - N/A   Clear
7:15 PM 84.2 °F 85.0 °F 62.6 °F 48% 30.02 in 10.0 mi South 10.4 mph - N/A   Clear
7:35 PM 82.4 °F 83.4 °F 62.6 °F 51% 30.02 in 10.0 mi South 10.4 mph - N/A   Clear
7:55 PM 80.6 °F 81.8 °F 62.6 °F 54% 30.03 in 10.0 mi SSE 8.1 mph - N/A   Clear
8:15 PM 80.6 °F 81.8 °F 62.6 °F 54% 30.03 in 10.0 mi SSE 8.1 mph - N/A   Clear
8:35 PM 78.8 °F - 62.6 °F 57% 30.04 in 10.0 mi SSE 8.1 mph - N/A   Clear
8:55 PM 77.0 °F - 64.4 °F 65% 30.04 in 10.0 mi SSE 9.2 mph - N/A   Clear
9:15 PM 77.0 °F - 64.4 °F 65% 30.04 in 10.0 mi SSE 9.2 mph - N/A   Clear
9:35 PM 75.2 °F - 64.4 °F 69% 30.05 in 10.0 mi SSE 10.4 mph - N/A   Clear
9:55 PM 75.2 °F - 64.4 °F 69% 30.05 in 10.0 mi South 10.4 mph - N/A   Clear
10:15 PM 75.2 °F - 64.4 °F 69% 30.06 in 10.0 mi South 9.2 mph - N/A   Clear
10:35 PM 73.4 °F - 64.4 °F 73% 30.06 in 10.0 mi South 9.2 mph - N/A   Clear
10:55 PM 73.4 °F - 62.6 °F 69% 30.06 in 10.0 mi South 6.9 mph - N/A   Clear
11:15 PM 71.6 °F - 62.6 °F 73% 30.06 in 10.0 mi South 5.8 mph - N/A   Clear
11:35 PM 71.6 °F - 62.6 °F 73% 30.05 in 10.0 mi South 8.1 mph - N/A   Clear
11:55 PM 71.6 °F - 62.6 °F 73% 30.05 in 10.0 mi SSE 8.1 mph - N/A   Clear